Location: Newark
(13.8117°N, 3.6025°W)
Time: 20:02:41
(UTC+00:00)

Explorer 11/Cluster Stage 4 - Pass Details

Date: 25 August 2019
Orbit: 467 x 1260 km, 28.8° (Epoch: 23 September)

Event Time Altitude Azimuth Distance (km) Brightness Sun altitude
Rises 18:18:12 0° 270° (W) 3,677 12.4 2.1°
Reaches altitude 10° 18:22:31 10° 247° (WSW) 2,528 10.2 1.1°
Maximum altitude 18:25:23 14° 218° (SW) 2,139 9.2 0.4°
Drops below altitude 10° 18:28:01 10° 188° (S) 2,254 8.9 -0.2°
Sets 18:31:28 0° 161° (SSE) 2,995 9.3 -1.0°
